Regional Weather Roundup
Issued by NWS Newport/Morehead, NC

Current Version | Previous Version | Graphics & Text | Print | Product List | Glossary Off
Versions: 1 2 3 4 5 6 7 8 9 10 11 12 13 14 15 16 17 18 19 20 21 22 23 24 25 26 27 28 29 30 31 32 33 34 35 36 37 38 39 40 41 42 43 44 45 46 47 48 49 50

000
ASUS42 KMHX 191925
RWRMHX
WEATHER ROUNDUP FOR EASTERN NORTH CAROLINA
NATIONAL WEATHER SERVICE NEWPORT/MOREHEAD CITY NC
300 PM EDT THU APR 19 2018

NOTE: "FAIR" INDICATES FEW OR NO CLOUDS BELOW 12,000 FEET
WITH NO SIGNIFICANT WEATHER AND/OR OBSTRUCTIONS TO VISIBILITY

NCZ015>017-031-032-045>047-102-103-192000-
NORTH COAST

CITY           SKY/WX    TMP DP  RH WIND       PRES   REMARKS
EDENTON        FAIR      79  52  39 NW13G21   29.78S
ELIZABETH CITY PTSUNNY   73  52  47 NW10      29.77R
KITTY HAWK     FAIR      60  48  66 CALM      29.78S
MANTEO         FAIR      62  50  64 E7        29.80R

$$

NCZ045>047-081-094-103-104-192000-
CENTRAL COAST

CITY           SKY/WX    TMP DP  RH WIND       PRES   REMARKS
FRISCO         FAIR      70  61  73 SW21G28   29.77S

$$

NCZ095-097-098-100-101-192000-
SOUTHERN COAST

CITY           SKY/WX    TMP DP  RH WIND       PRES   REMARKS
BEAUFORT       FAIR      70  60  70 SW28G37   29.78S
CEDAR ISLAND   NOT AVBL
JACKSONVILLE   FAIR      85  52  32 W22G33    29.77R
PINEY ISLAND   NOT AVBL
WILMINGTON     FAIR      84  52  33 W22G36    29.80S


$$

NCZ011>013-027>030-043-044-078>080-089-090>093-098-192000-
COASTAL PLAIN

CITY           SKY/WX    TMP DP  RH WIND       PRES   REMARKS
AHOSKIE        CLOUDY    71  44  37 NW7       29.82R
CLINTON        FAIR      81  55  40 W12G20    29.80S
ELIZABETHTOWN  PTSUNNY   81  48  30 MISG      29.82R
GOLDSBORO      FAIR      82  52  35 W15       29.78R
GREENVILLE     FAIR      79  50  36 W10G16    29.81S
HAVELOCK       NOT AVBL
KENANSVILLE    PTSUNNY   81  52  36 W10G28    29.79R
KINSTON        PTSUNNY   81  52  36 NW14G21   29.79R
NEW BERN       FAIR      81  56  42 W15G26    29.76F
RICHLANDS      FAIR      84  54  35 SW17G25   29.78S
ROCKY MOUNT    FAIR      76  47  35 NW20G28   29.81R
WASHINGTON     FAIR      81  54  38 W9        29.78S
WHITEVILLE     FAIR      82  48  30 SW13G21   29.83R

$$

AMZ130-135-150-152-154-156-158-170-250-252-270-ANZ085-086-088-633-658-670-192000-
MARINE OBSERVATIONS

STATION/POSITION TIME  TEMP    WIND        PRES    WAVE   SWELL
                       AIR SEA DIR/SP/G            HT/PER HT/PER
                 (UTC) (F)     (DEG/KT/KT) (MB)    (FT/S) (FT/S)
CHESAPEAKE LIGHT NOT AVBL
64 E VA BEACH    1850   53 51  330/ 14/ 16 1008.8    5/ 7   3/ 7
DUCK             1900   56 49  130/  7/  8 1008.3
2 E DUCK         1830      50                N/A     2/14   2/14
OREGON INLET     1900   57 64   10/  9/ 11 1008.7
13E OREGON INLT  1848      53                N/A     4/ 8   3/ 8
HATTERAS CG      1900   68 63  230/ 14/ 20 1008.1
DIAMOND BUOY     1910   69 68  230/ 23/ 29 1008.6
CAPE LOOKOUT     1900          220/ 16/ 22 1009.0
BEAUFORT LAB     1900   68 63  220/ 14/ 19 1008.5
30 SE NEW RVR IN 1908   68 66  210/ 19/ 25 1009.5
30 SE NEW RVR IN 1830      66                N/A     8/ 8
27 SE WRIGHTSVLE 1908   66 65  210/ 25/ 33 1010.6
5 SE WRIGHTSVLE  1908   66 61  220/ 19/ 27 1009.4
225 S CAPE HAT   1910   73 72  220/ 19/ 23 1015.6
41 SE CHARLESTON 1910   68 67  220/ 21/ 27 1013.5

$$




USA.gov is the U.S. government's official web portal to all federal, state and local government web resources and services.